This demonstration page uses our WeatherBlox Daily Observations layout. Learn more.

Left ArrowRight Arrow

39.01783, -85.05884

Hourly Observations for August 21, 2022

Temp ( °F °C ) Dew Point ( °F °C ) Humidity (%) Winds ( mph kmh ) Pressure ( in mb ) Visibility ( mi km ) Precip ( " mm )
12:52 am 00:52 Clear 69 20.6 31 -0.6 24 24 S 3 6 29.99 1016 10 16 0.00 0.00
1:52 am 01:52 Partly Cloudy 68 20 32 0 26 26 S 7 11 29.98 1015 10 16 0.00 0.00
2:52 am 02:52 Clear 68 20 30 -1.1 24 24 SSW 5 7 29.96 1015 10 16 0.00 0.00
3:52 am 03:52 Partly Cloudy 68 20 33 0.6 27 27 SSW 8 13 29.96 1014 10 16 0.00 0.00
4:52 am 04:52 Partly Cloudy 68 20 35 1.7 30 30 SW 7 11 29.94 1014 10 16 0.00 0.00
5:52 am 05:52 Cloudy 68 20 32 0 26 26 SSW 8 13 29.94 1014 10 16 0.00 0.00
6:22 am 06:22 Partly Cloudy 68 20 37 2.8 32 32 SSW 5 7 29.95 1014 7 11 0.00 0.00
6:52 am 06:52 Mostly Cloudy 68 20 35 1.7 30 30 SW 5 7 29.96 1015 7 11 0.00 0.00
7:13 am 07:13 Cloudy with Haze 68 20 44 6.7 42 42 SW 3 6 29.98 1015 2 3 0.00 0.00
7:36 am 07:36 Cloudy with Haze 69 20.6 34 1.1 27 27 S 6 9 29.98 1015 2 3 0.00 0.00
7:52 am 07:52 Cloudy with Haze 69 20.6 38 3.3 32 32 S 7 11 29.97 1015 2 3 0.00 0.00
8:16 am 08:16 Mostly Cloudy with Haze 69 20.6 36 2.2 30 30 S 8 13 29.98 1015 3 4 0.00 0.00
8:54 am 08:54 Mostly Cloudy with Haze 70 21.1 46 7.8 42 42 SSW 7 11 29.97 1015 3 4 0.00 0.00
9:25 am 09:25 Mostly Cloudy with Haze 71 21.7 39 3.9 31 31 S 7 11 29.97 1015 3 5 0.00 0.00
9:52 am 09:52 Cloudy with Haze 72 22.2 55 12.8 55 55 S 9 15 29.96 1015 3 5 0.00 0.00
10:52 am 10:52 Mostly Cloudy with Mist and Fog 72 22.2 72 22.2 100 100 SSW 9 15 29.98 1015 4 6 0.01 0.13
10:59 am 10:59 Cloudy with Light Rain 72 22.2 72 22.2 100 100 SSW 10 17 29.98 1015 3 5 0.01 0.13
11:34 am 11:34 Cloudy with Mist and Fog 72 22.2 70 21.1 93 93 SSW 7 11 29.98 1015 4 6 0.01 0.25
11:52 am 11:52 Cloudy with Light Rain 72 22.2 72 22 99 99 SSW 8 13 29.98 1015 5 8 0.01 0.25
12:52 pm 12:52 Mostly Cloudy with Mist and Fog 75 23.9 73 22.8 94 94 SSW 7 11 29.96 1015 5 8 0.01 0.13
1:52 pm 13:52 Cloudy with Haze 77 25 72 22.2 84 84 SW 9 15 29.94 1014 5 8 0.00 0.00
2:34 pm 14:34 Mostly Cloudy with Thunderstorms 76 24.4 71 21.7 85 85 SW 8 13 29.91 1013 7 11 0.00 0.00
2:48 pm 14:48 Mostly Cloudy with Thunderstorms 75 24 72 22 89 89 SW 7 11 29.92 1013 5 8 0.01 0.25
2:52 pm 14:52 Mostly Cloudy with Thunderstorms 75 23.9 71 21.7 88 88 WSW 6 9 29.92 1013 5 8 0.01 0.25
3:30 pm 15:30 Mostly Cloudy with Thunderstorms 74 23.3 71 21.7 91 91 W 9 15 29.91 1013 7 11 0.01 0.13
3:41 pm 15:41 Mostly Cloudy 74 23.3 72 22.2 94 94 SSW 9 15 29.91 1013 7 11 0.01 0.13
3:52 pm 15:52 Mostly Cloudy 77 25 72 22.2 84 84 SW 9 15 29.90 1013 9 14 0.01 0.13
4:52 pm 16:52 Partly Cloudy 78 25.6 72 22.2 82 82 WSW 9 15 29.89 1012 10 16 0.00 0.00
5:52 pm 17:52 Partly Cloudy 77 25 69 20.6 77 77 SW 8 13 29.90 1012 10 16 0.00 0.00
6:52 pm 18:52 Partly Cloudy 75 23.9 70 21.1 84 84 SW 7 11 29.90 1012 10 16 0.00 0.00
7:52 pm 19:52 Cloudy 74 23.3 69 20.6 85 85 WNW 8 13 29.91 1013 10 16 0.00 0.00
8:52 pm 20:52 Partly Cloudy 72 22.2 68 20 87 87 W 5 7 29.91 1013 10 16 0.00 0.00
9:52 pm 21:52 Partly Cloudy 70 21.1 67 19.4 90 90 SW 5 7 29.93 1014 10 16 0.00 0.00
10:52 pm 22:52 Mostly Cloudy 69 20.6 68 20 96 96 SW 3 6 29.93 1014 9 14 0.00 0.00
11:52 pm 23:52 Cloudy 68 20 37 2.8 32 32 WSW 3 6 29.93 1014 8 13 0.00 0.00

Powered by AerisWeather